HC6AC-16 Weather Reports


time (UTC)temp
F
wind
direction
speed
knots
gust
knots
rain 1hr
in
rain 24hr
in
rain mn
in
humidity
%
barometer
mb
20260504141332 56 120 2.6 4.3 0.00 0.00 0.00 95 1022.0
20260504140331 59 120 2.6 4.3 0.00 0.00 0.00 95 1022.0
20260504130327 54 109 0.9 3.5 0.00 0.00 0.00 97 1021.0
20260504110318 56 130 0.9 2.6 0.00 0.00 0.00 97 1020.0
20260504100314 57 136 0.9 2.6 0.00 0.00 0.00 97 1020.0
20260504081306 58 117 0.9 0.9 0.00 0.00 0.00 98 1019.0
20260504080305 55 117 0.9 1.7 0.00 0.00 0.00 98 1019.0
20260504070301 57 106 0.9 2.6 0.00 0.00 0.00 99 1020.0
20260504050252 57 124 0.9 2.6 0.00 0.00 0.00 98 1021.0
20260504045251 54 124 0.9 2.6 0.00 0.00 0.00 98 1021.0
20260504044250 51 124 1.7 2.6 0.00 0.00 0.00 98 1021.0
20260504043250 58 121 0.9 2.6 0.00 0.00 0.00 98 1021.0
20260504042249 55 121 0.9 2.6 0.00 0.00 0.00 98 1022.0
20260504041248 55 121 0.9 2.6 0.00 0.00 0.00 98 1022.0
20260504040248 52 121 0.9 2.6 0.00 0.00 0.00 98 1022.0
20260504035247 49 121 1.7 2.6 0.00 0.00 0.00 98 1022.0
20260504034246 59 126 0.9 2.6 0.00 0.00 0.00 98 1022.0
20260504033246 56 126 0.9 2.6 0.00 0.00 0.00 98 1022.0
20260504032245 53 126 1.7 2.6 0.00 0.00 0.00 98 1022.0
20260504031244 57 126 0.9 2.6 0.00 0.00 0.00 98 1022.0
20260504030244 54 126 1.7 2.6 0.00 0.00 0.00 98 1022.0
20260504025243 59 126 1.7 2.6 0.00 0.00 0.00 98 1022.0
20260504024242 59 126 1.7 2.6 0.00 0.00 0.00 98 1022.0
20260504023241 58 120 0.9 3.5 0.00 0.00 0.00 98 1022.0
20260504022240 55 120 1.7 3.5 0.00 0.00 0.00 98 1021.0
20260504021239 58 120 0.9 3.5 0.00 0.00 0.00 98 1021.0
20260504020238 55 120 1.7 3.5 0.00 0.00 0.00 98 1021.0
20260504015238 58 120 0.9 3.5 0.00 0.00 0.00 98 1021.0
20260504014237 55 120 1.7 3.5 0.00 0.00 0.00 98 1021.0
20260504013236 58 112 2.6 4.3 0.00 0.00 0.00 98 1021.0
20260504012235 55 112 2.6 4.3 0.00 0.00 0.00 98 1021.0
20260504011235 52 112 2.6 4.3 0.00 0.00 0.00 98 1021.0
20260504010234 49 112 2.6 4.3 0.00 0.00 0.00 98 1021.0
20260504005233 60 112 2.6 4.3 0.00 0.00 0.00 98 1021.0
20260504004232 57 112 2.6 4.3 0.00 0.00 0.00 98 1021.0
20260504003232 54 112 2.6 4.3 0.00 0.00 0.00 98 1021.0